Home > Time Zones > World Clock > Weather > Japan > Osaka > Past weeks

Flag Weather past 2 weeks in Osaka, Japan

Now
57 °F

Partly cloudy.


Feels Like: 55 °F
Forecast: 49 / 61 °F
Wind: 9 mph from North

Location: Kansai International Airport

Current Time: Nov 27, 2014 at 4:02:02 AM

Latest Report: Nov 27, 2014 at 3:30 AM


Visibility: N/A

Pressure: 30.09 "Hg

Humidity: 63%

Dew point: 45 °F

Location of OsakaLocation

Historic Weather in Osaka — Graph

°F

Osaka temperature yesterday

Maximum temperature yesterday: 59 °F (at 12:00 AM)
Minimum temperature yesterday: 55 °F (at 5:00 AM)
Average temperature yesterday: 58 °F

Past Weeks' High & Low Weather Summary

 TemperatureHumidityPressure
High66 °F (Nov 12, 12:30 PM)100% (Nov 25, 12:30 PM)30.33 "Hg (Nov 25, 12:30 PM)
Low45 °F (Nov 21, 6:00 AM)29% (Nov 21, 3:00 PM)29.74 "Hg (Nov 12, 1:30 PM)
Average56 °F59%30.12 "Hg
* Reported Nov 12 3:00 AM — Nov 27 3:00 AM, Osaka, Weather by CustomWeather, © 2014

Note: Actual official high and low records may vary slightly from our data, if they occured in-between our weather recording intervals... More about our weather records

Advertising

Osaka weather history for previous 24 hours

 ConditionsComfort  
Time TempWeatherWind HumidityBarometerVisibility
3:00 AM
Nov 27
57 °FPassing clouds.12 mph63%30.09 "HgN/A
2:30 AM57 °FPassing clouds.12 mph63%30.09 "HgN/A
2:00 AM55 °FPassing clouds.8 mph67%30.09 "HgN/A
1:30 AM57 °FPassing clouds.9 mph63%30.07 "HgN/A
1:00 AM57 °FPassing clouds.10 mph63%30.07 "HgN/A
12:30 AM57 °FPassing clouds.8 mph67%30.04 "HgN/A
12:00 AM55 °FPassing clouds.9 mph67%30.04 "HgN/A
11:30 PM
Nov 26
57 °FPassing clouds.9 mph63%30.04 "HgN/A
11:00 PM57 °FPassing clouds.12 mph67%30.04 "HgN/A
10:30 PM57 °FPassing clouds.13 mph63%30.04 "HgN/A
10:00 PM57 °FPartly cloudy.13 mph63%30.01 "HgN/A
9:30 PM57 °FPartly cloudy.9 mph67%30.01 "HgN/A
9:00 PM57 °FPartly cloudy.12 mph72%30.01 "HgN/A
8:30 PM57 °FPartly cloudy.10 mph67%29.98 "HgN/A
8:00 PM57 °FScattered showers. Partly cloudy.12 mph72%29.98 "HgN/A
7:30 PM57 °FPartly cloudy.12 mph67%29.95 "HgN/A
7:00 PM57 °FPartly cloudy.7 mph72%29.98 "HgN/A
6:30 PM57 °FSprinkles. Partly cloudy.12 mph72%29.95 "HgN/A
6:00 PM59 °FSprinkles. Partly cloudy.14 mph68%29.95 "HgN/A
5:30 PM57 °FSprinkles. Partly cloudy.17 mph72%29.92 "HgN/A
5:00 PM57 °FSprinkles. Partly cloudy.15 mph77%29.92 "HgN/A
4:30 PM59 °FSprinkles. Broken clouds.6 mph77%29.92 "HgN/A
4:00 PM59 °FSprinkles. Broken clouds.6 mph72%29.92 "HgN/A
3:30 PM59 °FSprinkles. Broken clouds.3 mph72%29.89 "HgN/A
3:00 PM59 °FScattered showers. Broken clouds.7 mph72%29.89 "HgN/A
2:30 PM59 °FBroken clouds.6 mph72%29.89 "HgN/A
2:00 PM59 °FBroken clouds.8 mph72%29.86 "HgN/A
1:30 PM59 °FBroken clouds.9 mph72%29.86 "HgN/A
1:00 PM59 °FBroken clouds.10 mph72%29.86 "HgN/A
12:30 PM59 °FBroken clouds.10 mph77%29.89 "HgN/A
12:00 PM59 °FBroken clouds.10 mph72%29.89 "HgN/A
11:30 AM59 °FBroken clouds.10 mph77%29.89 "HgN/A
11:00 AM57 °FBroken clouds.10 mph77%29.92 "HgN/A
10:30 AM57 °FBroken clouds.9 mph82%29.92 "HgN/A
10:00 AM57 °FBroken clouds.10 mph82%29.92 "HgN/A
9:30 AM57 °FBroken clouds.9 mph82%29.92 "HgN/A
9:00 AM57 °FSprinkles. Broken clouds.8 mph82%29.92 "HgN/A
8:30 AM57 °FPartly sunny.9 mph82%29.92 "HgN/A
8:00 AM57 °FBroken clouds.9 mph82%29.92 "HgN/A
7:30 AM55 °FBroken clouds.10 mph88%29.92 "HgN/A
7:00 AM55 °FBroken clouds.9 mph88%29.92 "HgN/A
6:30 AM55 °FScattered showers. Partly cloudy.9 mph88%29.89 "HgN/A
6:00 AM55 °FPartly cloudy.9 mph88%29.89 "HgN/A
5:30 AM55 °FSprinkles. Partly cloudy.8 mph88%29.89 "HgN/A
5:00 AM55 °FSprinkles. Partly cloudy.10 mph88%29.86 "HgN/A
4:30 AM57 °FSprinkles. Partly cloudy.8 mph82%29.86 "HgN/A
4:00 AM57 °FSprinkles. Partly cloudy.8 mph82%29.86 "HgN/A
Weather by CustomWeather, © 2014

See weather overviewHow to use our weather pages